Buffalo, MN

9:13 AM CST on December 17, 2017 (GMT -0600)
Buffalo

Weather History for KCFE - April, 2014

Change the Weather History Date:

Tuesday, April 8, 2014

  Actual Average (KMIC) Record (KMIC)
Temperature  
Mean Temperature 42 °F -  
Max Temperature 50 °F 51 °F 70 °F (2005)
Min Temperature 33 °F 32 °F 18 °F (2007)
Degree Days  
Heating Degree Days 24    
Moisture  
Dew Point 28 °F    
Average Humidity 61    
Maximum Humidity 84    
Minimum Humidity 39    
Precipitation  
Precipitation 0.00 in - - ()
Sea Level Pressure  
Sea Level Pressure 29.95 in    
Wind  
Wind Speed 8 mph (NW)    
Max Wind Speed 15 mph    
Max Gust Speed 23 mph    
Visibility 10 miles    
Events      
Averages and records for this station are not official NWS values.
T = Trace of Precipitation, MM = Missing Value Source: NWS Daily Summary

Daily Weather History Graph

Daily Weather History Graph

Search for Another Location

Airport or City:

Trip Planner

Search our weather history database for the weather conditions in past years. The results will help you decide how hot, cold, wet, or windy it might be!

Date:

Astronomy

Apr. 08, 2014 Rise Set
Actual Time 6:42 AM CDT 7:52 PM CDT
Civil Twilight 6:12 AM CDT 8:22 PM CDT
Nautical Twilight 5:36 AM CDT 8:58 PM CDT
Astronomical Twilight 4:58 AM CDT 9:37 PM CDT
Moon 1:30 PM CDT (4/8) 3:12 AM CDT (4/8)
Length of Visible Light 14h 09m
Length of Day
13h 09m
Waxing Gibbous, 63% of the Moon is Illuminated
Apr 8
Waxing Gibbous
Apr 15
Full
Apr 22
Last Quarter
Apr 29
New
May 6
First Quarter

Hourly Weather History & Observations

Time (CDT) Temp. Windchill Dew Point Humidity Pressure Visibility Wind Dir Wind Speed Gust Speed Precip Events Conditions
12:16 AM 41.0 °F 36.4 °F 30.9 °F 67% 29.85 in 10.0 mi NW 6.9 mph - N/A   Clear
12:36 AM 40.1 °F 36.1 °F 30.4 °F 68% 29.84 in 10.0 mi WNW 5.8 mph - N/A   Clear
12:55 AM 39.6 °F 34.0 °F 30.2 °F 69% 29.84 in 10.0 mi WNW 8.1 mph - N/A   Clear
1:16 AM 39.4 °F 34.5 °F 30.0 °F 69% 29.84 in 10.0 mi WNW 6.9 mph - N/A   Clear
1:36 AM 39.2 °F 33.6 °F 29.3 °F 68% 29.85 in 10.0 mi WNW 8.1 mph - N/A   Clear
1:55 AM 38.3 °F 33.2 °F 28.6 °F 68% 29.85 in 10.0 mi NW 6.9 mph - N/A   Clear
2:16 AM 37.6 °F 34.0 °F 28.4 °F 69% 29.85 in 10.0 mi NW 4.6 mph - N/A   Clear
2:35 AM 37.2 °F 31.9 °F 28.9 °F 72% 29.85 in 10.0 mi WNW 6.9 mph - N/A   Clear
2:55 AM 36.5 °F 31.8 °F 27.9 °F 71% 29.85 in 10.0 mi NW 5.8 mph - N/A   Clear
3:16 AM 36.0 °F 30.3 °F 27.3 °F 71% 29.86 in 10.0 mi NW 6.9 mph - N/A   Clear
3:35 AM 35.6 °F 30.7 °F 27.1 °F 71% 29.86 in 10.0 mi NW 5.8 mph - N/A   Clear
3:55 AM 35.4 °F 29.0 °F 26.8 °F 71% 29.86 in 10.0 mi NW 8.1 mph - N/A   Clear
4:16 AM 35.1 °F 29.3 °F 26.1 °F 70% 29.86 in 10.0 mi NW 6.9 mph - N/A   Clear
4:35 AM 34.9 °F 28.3 °F 25.7 °F 69% 29.87 in 10.0 mi NW 8.1 mph - N/A   Clear
4:55 AM 34.7 °F 28.8 °F 25.5 °F 69% 29.87 in 10.0 mi NW 6.9 mph - N/A   Clear
5:15 AM 34.2 °F 26.8 °F 25.7 °F 71% 29.88 in 10.0 mi NW 9.2 mph - N/A   Clear
5:35 AM 34.0 °F 26.0 °F 25.7 °F 72% 29.89 in 10.0 mi NW 10.4 mph - N/A   Clear
5:56 AM 33.8 °F 25.8 °F 26.4 °F 74% 29.89 in 10.0 mi NW 10.4 mph - N/A   Clear
6:15 AM 33.8 °F 25.8 °F 27.0 °F 76% 29.90 in 10.0 mi NW 10.4 mph - N/A   Clear
6:35 AM 33.3 °F 25.7 °F 27.5 °F 79% 29.91 in 10.0 mi NW 9.2 mph - N/A   Clear
7:15 AM 33.8 °F 25.3 °F 28.2 °F 80% 29.93 in 10.0 mi NW 11.5 mph 17.3 mph N/A   Clear
7:35 AM 33.8 °F 25.3 °F 28.4 °F 81% 29.94 in 10.0 mi NW 11.5 mph 16.1 mph N/A   Clear
7:56 AM 34.7 °F 26.4 °F 28.6 °F 78% 29.94 in 10.0 mi NW 11.5 mph - N/A   Clear
8:15 AM 35.4 °F 26.8 °F 28.9 °F 77% 29.95 in 10.0 mi NW 12.7 mph 17.3 mph N/A   Clear
8:35 AM 35.8 °F 26.9 °F 28.9 °F 76% 29.95 in 10.0 mi NW 13.8 mph 21.9 mph N/A   Clear
8:56 AM 36.7 °F 28.4 °F 29.3 °F 75% 29.96 in 10.0 mi NNW 12.7 mph 20.7 mph N/A   Clear
9:15 AM 37.4 °F 28.5 °F 29.3 °F 73% 29.96 in 10.0 mi NW 15.0 mph 19.6 mph N/A   Clear
9:35 AM 38.3 °F 29.7 °F 29.8 °F 72% 29.97 in 10.0 mi NW 15.0 mph 21.9 mph N/A   Clear
9:56 AM 39.4 °F 31.8 °F 30.6 °F 71% 29.98 in 10.0 mi NW 12.7 mph 19.6 mph N/A   Clear
10:15 AM 39.9 °F 32.1 °F 30.0 °F 68% 29.99 in 10.0 mi NNW 13.8 mph 18.4 mph N/A   Clear
10:35 AM 41.4 °F 35.2 °F 31.1 °F 67% 29.99 in 10.0 mi NW 10.4 mph 17.3 mph N/A   Clear
10:56 AM 42.1 °F 35.2 °F 30.0 °F 62% 29.99 in 10.0 mi NNW 12.7 mph - N/A   Clear
11:16 AM 43.5 °F 37.9 °F 30.4 °F 60% 29.99 in 10.0 mi NNW 10.4 mph 16.1 mph N/A   Clear
11:35 AM 44.6 °F 38.1 °F 31.1 °F 59% 30.00 in 10.0 mi NNW 13.8 mph - N/A   Clear
11:56 AM 45.5 °F 39.9 °F 30.4 °F 56% 30.00 in 10.0 mi NNW 11.5 mph - N/A   Clear
12:16 PM 46.4 °F 41.1 °F 31.6 °F 56% 30.01 in 10.0 mi NNW 11.5 mph 18.4 mph N/A   Clear
12:35 PM 47.3 °F - 30.6 °F 52% 30.00 in 10.0 mi NNW 10.4 mph 18.4 mph N/A   Clear
12:56 PM 47.1 °F - 30.6 °F 53% 30.01 in 10.0 mi NNW 13.8 mph 23.0 mph N/A   Clear
1:16 PM 46.6 °F - 30.4 °F 53% 30.00 in 10.0 mi NNW 11.5 mph 19.6 mph N/A   Scattered Clouds
1:35 PM 47.8 °F - 30.4 °F 51% 29.99 in 10.0 mi NW 13.8 mph 17.3 mph N/A   Scattered Clouds
1:56 PM 47.8 °F - 31.1 °F 52% 30.00 in 10.0 mi NW 13.8 mph 17.3 mph N/A   Scattered Clouds
2:16 PM 47.7 °F - 30.2 °F 51% 29.99 in 10.0 mi WNW 9.2 mph - N/A   Scattered Clouds
2:35 PM 48.6 °F - 29.5 °F 48% 30.00 in 10.0 mi NNW 6.9 mph - N/A   Scattered Clouds
2:56 PM 48.6 °F - 29.1 °F 47% 30.00 in 10.0 mi WNW 6.9 mph - N/A   Scattered Clouds
3:16 PM 49.6 °F - 28.9 °F 45% 29.99 in 10.0 mi NW 11.5 mph - N/A   Clear
3:35 PM 49.6 °F - 28.2 °F 44% 29.99 in 10.0 mi NW 11.5 mph - N/A   Scattered Clouds
3:56 PM 50.0 °F - 28.0 °F 43% 29.99 in 10.0 mi WNW 5.8 mph 18.4 mph N/A   Scattered Clouds
4:16 PM 48.2 °F - 27.1 °F 44% 29.99 in 10.0 mi NNW 11.5 mph - N/A   Scattered Clouds
4:35 PM 49.3 °F - 26.8 °F 42% 29.99 in 10.0 mi NW 12.7 mph 17.3 mph N/A   Scattered Clouds
4:56 PM 50.0 °F - 26.6 °F 40% 29.99 in 10.0 mi NW 11.5 mph - N/A   Clear
5:16 PM 50.0 °F - 25.7 °F 39% 29.99 in 10.0 mi NW 11.5 mph 18.4 mph N/A   Clear
5:35 PM 50.0 °F - 26.4 °F 40% 29.99 in 10.0 mi NW 9.2 mph - N/A   Scattered Clouds
5:56 PM 49.6 °F - 25.5 °F 39% 29.99 in 10.0 mi West 9.2 mph - N/A   Scattered Clouds
6:15 PM 49.6 °F - 25.7 °F 39% 29.99 in 10.0 mi NW 8.1 mph - N/A   Clear
6:36 PM 49.1 °F - 25.0 °F 39% 29.99 in 10.0 mi NW 9.2 mph - N/A   Clear
6:56 PM 48.4 °F - 25.0 °F 40% 29.99 in 10.0 mi West 8.1 mph - N/A   Clear
7:15 PM 48.2 °F - 24.1 °F 39% 29.99 in 10.0 mi West 9.2 mph - N/A   Clear
7:36 PM 47.1 °F - 25.7 °F 43% 30.00 in 10.0 mi West 6.9 mph - N/A   Clear
7:56 PM 45.5 °F 43.2 °F 26.1 °F 47% 30.00 in 10.0 mi West 4.6 mph - N/A   Clear
8:15 PM 44.2 °F 41.8 °F 26.8 °F 50% 30.00 in 10.0 mi West 4.6 mph - N/A   Clear
8:36 PM 42.8 °F 41.1 °F 27.5 °F 55% 30.00 in 10.0 mi WSW 3.5 mph - N/A   Clear
8:55 PM 41.5 °F - 27.5 °F 57% 30.00 in 10.0 mi Calm Calm - N/A   Clear
9:15 PM 41.2 °F - 27.5 °F 58% 30.00 in 10.0 mi Calm Calm - N/A   Clear
9:35 PM 39.6 °F - 27.7 °F 62% 30.00 in 10.0 mi Calm Calm - N/A   Clear
9:55 PM 38.5 °F - 28.2 °F 67% 29.99 in 10.0 mi Calm Calm - N/A   Clear
10:16 PM 37.4 °F - 29.1 °F 72% 29.99 in 10.0 mi Calm Calm - N/A   Clear
10:35 PM 37.4 °F - 28.4 °F 70% 29.98 in 10.0 mi Calm Calm - N/A   Clear
10:55 PM 35.6 °F - 28.4 °F 75% 29.98 in 10.0 mi Calm Calm - N/A   Clear
11:16 PM 36.0 °F - 28.4 °F 74% 29.97 in 10.0 mi Calm Calm - N/A   Clear
11:35 PM 36.0 °F - 28.6 °F 75% 29.97 in 10.0 mi Calm Calm - N/A   Clear
11:55 PM 33.8 °F - 29.3 °F 84% 29.97 in 10.0 mi Calm Calm - N/A   Clear